Weather History for Charlottesville, VA

Change the Weather History Date:

Monday, June 30, 2014

  Actual Average Record
Temperature  
Mean Temperature 75 °F 75 °F  
Max Temperature 87 °F 86 °F 105 °F (1936)
Min Temperature 63 °F 64 °F 50 °F (1919)
Degree Days  
Heating Degree Days 0 0  
Month to date heating degree days 2 8  
Since 1 June heating degree days 2 11  
Since 1 July heating degree days 4591 4444  
Cooling Degree Days 10 10  
Month to date cooling degree days 272 219  
Year to date cooling degree days 388 305  
Since 1 June cooling degree days 272 219  
Growing Degree Days 25 (Base 50)    
Moisture  
Dew Point 65 °F    
Average Humidity 74    
Maximum Humidity 93    
Minimum Humidity 55    
Precipitation  
Precipitation 0.00 in 0.12 in 0.47 in (2005)
Month to date precipitation 2.85 3.73  
Year to date precipitation 21.12 20.20  
Sea Level Pressure  
Sea Level Pressure 30.02 in    
Wind  
Wind Speed 4 mph (South)    
Max Wind Speed 12 mph    
Max Gust Speed 20 mph    
Visibility 10 miles    
Events      
T = Trace of Precipitation, MM = Missing Value Source: NWS Daily Summary

Daily Weather History Graph

Daily Weather History Graph

Search for Another Location

Airport:

Trip Planner

Search our weather history database for the weather conditions in past years. The results will help you decide how hot, cold, wet, or windy it might be!

Date:

Astronomy

Jun. 30, 2014 Rise Set
Actual Time 5:54 AM EDT 8:40 PM EDT
Civil Twilight 5:22 AM EDT 9:12 PM EDT
Nautical Twilight 4:43 AM EDT 9:51 PM EDT
Astronomical Twilight 3:58 AM EDT 10:36 PM EDT
Moon 9:02 AM EDT (6/30) 10:36 PM EDT (6/30)
Length of Visible Light 15h 49m
Length of Day
14h 46m
Waxing Crescent, 10% of the Moon is Illuminated
Jun 30
Waxing Crescent
Jul 5
First Quarter
Jul 12
Full
Jul 18
Last Quarter
Jul 26
New

Hourly Weather History & Observations

Time (EDT) Temp. Heat Index Dew Point Humidity Pressure Visibility Wind Dir Wind Speed Gust Speed Precip Events Conditions
12:53 AM 70.0 °F - 62.1 °F 76% 30.10 in 10.0 mi Calm Calm - N/A   Clear
1:53 AM 68.0 °F - 62.1 °F 81% 30.08 in 10.0 mi Calm Calm - N/A   Clear
2:53 AM 66.9 °F - 62.1 °F 84% 30.07 in 10.0 mi Calm Calm - N/A   Clear
3:53 AM 64.0 °F - 62.1 °F 93% 30.06 in 10.0 mi Calm Calm - N/A   Clear
4:53 AM 66.0 °F - 62.1 °F 87% 30.06 in 10.0 mi Calm Calm - N/A   Clear
5:53 AM 64.0 °F - 61.0 °F 90% 30.08 in 10.0 mi Calm Calm - N/A   Clear
6:53 AM 64.0 °F - 62.1 °F 93% 30.10 in 10.0 mi Calm Calm - N/A   Clear
7:53 AM 66.9 °F - 62.1 °F 84% 30.09 in 10.0 mi SSW 5.8 mph - N/A   Clear
8:53 AM 73.0 °F - 63.0 °F 71% 30.09 in 10.0 mi SSW 5.8 mph - N/A   Clear
9:53 AM 78.1 °F - 64.0 °F 62% 30.07 in 10.0 mi SSE 6.9 mph - N/A   Clear
10:53 AM 80.1 °F 81.7 °F 64.0 °F 58% 30.06 in 10.0 mi South 6.9 mph - N/A   Clear
11:53 AM 82.0 °F 83.8 °F 64.9 °F 56% 30.04 in 10.0 mi South 6.9 mph - N/A   Clear
12:53 PM 84.0 °F 86.3 °F 66.0 °F 55% 30.02 in 10.0 mi SSW 9.2 mph - N/A   Partly Cloudy
1:53 PM 84.0 °F 86.5 °F 66.9 °F 56% 30.01 in 10.0 mi South 8.1 mph - N/A   Clear
2:53 PM 84.9 °F 87.6 °F 66.9 °F 55% 30.00 in 10.0 mi Variable 5.8 mph - N/A   Partly Cloudy
3:53 PM 84.9 °F 87.6 °F 66.9 °F 55% 29.99 in 10.0 mi South 6.9 mph - N/A   Scattered Clouds
4:53 PM 86.0 °F 89.4 °F 68.0 °F 55% 29.97 in 10.0 mi SSW 8.1 mph - N/A   Partly Cloudy
5:53 PM 84.9 °F 88.2 °F 68.0 °F 57% 29.95 in 10.0 mi South 6.9 mph - N/A   Scattered Clouds
6:53 PM 84.0 °F 87.8 °F 69.1 °F 61% 29.94 in 10.0 mi SSE 5.8 mph - N/A   Scattered Clouds
7:53 PM 82.9 °F 86.5 °F 69.1 °F 63% 29.94 in 10.0 mi SSE 6.9 mph - N/A   Scattered Clouds
8:53 PM 79.0 °F - 69.1 °F 72% 29.94 in 10.0 mi SSE 4.6 mph - N/A   Clear
9:53 PM 77.0 °F - 69.1 °F 76% 29.96 in 10.0 mi Calm Calm - N/A   Clear
10:53 PM 75.9 °F - 69.1 °F 79% 29.96 in 10.0 mi SSW 4.6 mph - N/A   Clear
11:53 PM 75.0 °F - 69.1 °F 82% 29.97 in 10.0 mi SW 3.5 mph - N/A   Mostly Cloudy